[[{"header":{"parameterUnit":"m.s-1","parameterCategory":1,"la1":30.2991,"la2":30.254,"lo1":-89.0895,"lo2":-89.0444,"dy":0.0017,"dx":0.0017,"nx":28,"ny":28,"refTime":"2026-02-03T09:00:00:Z","depth":0,"parameterNumber":2,"parameterNumberName":"U-component_of_WINDS"},"data":[0,0,0,0,0,0,0,0,0,0,0,0,0,0,0,0,0,0,0,0,0,0,0,0,0,0,0,0,0,0,0,0,0,0,0,0,0,0,0,0,0,0,0,0,0,0,0,0,0,0,0,0,0,0,0,0,0,0,2.2528,2.2529,0,2.2644,2.2645,2.2647,2.263,2.2628,2.2626,2.2624,2.275,2.2755,2.276,0,0,0,0,0,0,0,0,0,0,0,0,0,2.2299,2.2304,2.2528,2.253,2.2531,2.2644,2.2645,2.2647,2.2631,2.2628,2.2626,2.2624,2.2748,2.2755,2.2761,0,0,0,0,0,0,0,0,0,0,0,0,0,2.2405,2.2305,2.2528,2.2536,2.2538,2.2643,2.2645,2.2647,2.2631,2.2628,2.2625,2.2622,2.2746,2.2754,2.2762,2.2868,0,0,2.2785,2.2789,0,0,0,0,0,0,0,0,2.2399,2.2414,2.2534,2.2536,2.2538,2.2619,2.2611,2.2722,2.2632,2.2596,2.2624,2.2621,2.271,2.272,2.2748,2.2874,2.2879,2.2786,2.2791,2.2794,2.2796,0,0,0,0,0,0,0,2.2392,2.2409,2.2574,2.2535,2.2538,2.2536,2.2548,2.2632,2.2668,2.2599,2.2598,2.2612,2.271,2.2741,2.2751,2.2881,2.2786,2.2793,2.2797,2.28,2.31,2.3103,0,0,0,0,0,0,2.2381,2.2403,2.257,2.2578,2.246,2.2543,2.2556,2.2596,2.2667,2.2675,2.2614,2.261,2.2729,2.2742,2.2756,2.2885,2.2794,2.2801,2.2806,2.3096,2.31,2.3104,0,0,0,0,0,0,2.2377,2.2397,2.2566,2.249,2.2511,2.255,2.2595,2.26,2.2631,2.2678,2.2685,2.2638,2.2727,2.2745,2.284,2.2889,2.2805,2.2812,2.3093,2.3098,2.3102,2.3144,0,0,0,0,0,0,2.237,2.2395,2.2434,2.2491,2.2515,2.2646,2.2598,2.2605,2.2644,2.264,2.2703,2.2711,2.2726,2.2828,2.2847,2.2898,2.2818,2.3088,2.3095,2.3101,2.3138,2.3149,2.3159,0,0,0,0,0,2.2362,2.2443,2.2436,2.2457,2.2565,2.2649,2.2663,2.2678,2.2647,2.2688,2.2719,2.2709,2.288,2.2838,2.286,2.2913,2.3085,2.3093,2.31,2.3133,2.3147,2.3159,0,0,0,0,0,0,2.2394,2.245,2.2444,2.2545,2.2592,2.2646,2.2698,2.2692,2.275,2.2745,2.2762,2.2777,2.2873,2.2903,2.2855,2.302,2.2979,2.2991,2.2997,2.301,2.3021,2.3012,2.2824,0,0,0,0,0,2.2412,2.2473,2.252,2.2605,2.2629,2.2659,2.2696,2.2703,2.2754,2.2774,2.2811,2.2863,2.2928,2.2971,2.3034,2.3142,2.3156,2.319,2.32,2.3209,2.3219,2.3279,2.3295,2.3129,2.3128,2.3128,0,0,2.2451,2.249,2.2528,2.2613,2.265,2.2714,2.2676,2.2747,2.2795,2.2786,2.2877,2.2906,2.2964,2.3066,2.3113,2.3094,2.3268,2.3218,2.3224,2.3231,2.3288,2.3304,2.3318,2.3134,2.3133,2.3132,0,0,2.2556,2.2591,2.2665,2.2703,2.2758,2.2778,2.2796,2.2851,2.2869,2.296,2.2954,2.3013,2.3126,2.3167,2.3203,2.3323,2.3316,2.3343,2.3398,2.3456,2.3469,2.3481,2.3524,2.3539,2.3353,2.3353,2.3353,0,2.2599,2.2694,2.2705,2.2775,2.2813,2.2805,2.2881,2.2918,2.2992,2.302,2.2996,2.3136,2.3175,2.3287,2.3316,2.3345,2.3367,2.3336,2.3466,2.3478,2.3489,2.3531,2.3547,2.3356,2.3356,2.3356,2.3355,0,2.2743,2.281,2.2863,2.2932,2.2976,2.305,2.3074,2.3117,2.312,2.3143,2.3237,2.3282,2.3354,2.3381,2.3386,2.3494,2.348,2.3462,2.3421,2.3508,2.3547,2.3563,2.336,2.3359,2.3359,2.3358,0,0,2.2872,2.2945,2.2965,2.2996,2.3056,2.3109,2.3183,2.325,2.3288,2.334,2.3402,2.3497,2.348,2.3521,2.353,2.3581,2.3673,2.3556,2.3558,2.3577,2.3795,2.3809,2.3827,2.3669,2.3672,2.3674,2.379,0,2.2982,2.3109,2.3121,2.3236,2.3298,2.329,2.3355,2.34,2.3423,2.3481,2.3507,2.3574,2.3546,2.357,2.362,2.3651,2.3717,2.3643,2.3729,2.3732,2.3714,2.3847,2.3862,2.397,2.3806,2.3808,2.381,0,2.3128,2.3181,2.3301,2.3353,2.3379,2.3436,2.3499,2.3554,2.3606,2.3619,2.3664,2.3666,2.3744,2.37,2.3808,2.3757,2.3793,2.3813,2.3818,2.3827,2.3776,2.386,2.4004,2.402,2.3834,2.3832,2.3831,0,2.3209,2.3311,2.3396,2.3423,2.3486,2.3526,2.3555,2.3603,2.3643,2.3699,2.3725,2.379,2.3826,2.3877,2.3898,2.3864,2.4005,2.3963,2.402,2.4019,2.405,2.4048,2.4202,2.4073,2.4073,2.4073,2.4072,0,2.3331,2.3405,2.3434,2.3486,2.3569,2.3583,2.3666,2.3692,2.3736,2.3794,2.3793,2.3849,2.3872,2.3933,2.395,2.4036,2.4053,2.4067,2.4071,2.4067,2.4066,2.4091,2.4085,2.4077,2.4076,2.4075,2.4074,0,2.3436,2.3458,2.355,2.3601,2.3616,2.3675,2.3719,2.3771,2.3793,2.3867,2.3886,2.3921,2.3992,2.4017,2.4104,2.4115,2.4216,2.4213,2.4198,2.4199,2.4254,2.4249,2.4431,2.4456,2.431,2.4311,2.4312,0,2.3513,2.3569,2.3625,2.3663,2.3692,2.3754,2.3794,2.3811,2.3853,2.3916,2.396,2.4029,2.4086,2.4199,2.4234,2.43,2.43,2.4359,2.431,2.4304,2.4301,2.4297,2.4303,2.4368,2.437,2.4371,2.4372,0,2.3646,2.3654,2.371,2.3771,2.3818,2.3867,2.3915,2.3947,2.3971,2.4018,2.4089,2.4133,2.422,2.4289,2.4357,2.4389,2.4385,2.4387,2.4404,2.4401,2.4389,2.4397,2.4223,2.4383,2.4382,2.4381,2.438,2.438,2.374,2.3789,2.3836,2.3899,2.3936,2.3981,2.4031,2.4059,2.4117,2.4187,2.4194,2.4271,2.4322,2.4412,2.4446,2.4508,2.4492,2.4516,2.4522,2.4528,2.4532,2.4379,2.452,2.452,2.452,2.452,2.4519,0,2.3873,2.3902,2.396,2.4025,2.4076,2.4065,2.4117,2.4161,2.4227,2.4274,2.4329,2.441,2.4478,2.4517,2.4585,2.4627,2.4627,2.4644,2.4641,2.4649,2.4543,2.4521,2.4643,2.4643,2.4643,2.4643,2.4643,2.4642,2.3948,2.4031,2.4044,2.4147,2.4176,2.4249,2.428,2.4321,2.4359,2.4449,2.4504,2.4528,2.4573,2.4644,2.4706,2.4716,2.4741,2.476,2.4769,2.4669,2.4656,2.4644,2.4624,2.4765,2.4765,2.487,2.4871,2.4871]},{"header":{"parameterUnit":"m.s-1","parameterCategory":1,"la1":30.2991,"la2":30.254,"lo1":-89.0895,"lo2":-89.0444,"dy":0.0017,"dx":0.0017,"nx":28,"ny":28,"refTime":"2026-02-03T09:00:00:Z","depth":0,"parameterNumber":3,"parameterNumberName":"V-component_of_WINDS"},"data":[0,0,0,0,0,0,0,0,0,0,0,0,0,0,0,0,0,0,0,0,0,0,0,0,0,0,0,0,0,0,0,0,0,0,0,0,0,0,0,0,0,0,0,0,0,0,0,0,0,0,0,0,0,0,0,0,0,0,2.4508,2.4509,0,2.4655,2.4657,2.4658,2.4662,2.4661,2.4659,2.4657,2.4812,2.4818,2.4824,0,0,0,0,0,0,0,0,0,0,0,0,0,2.4233,2.4238,2.4507,2.4509,2.4511,2.4655,2.4657,2.4659,2.4663,2.4661,2.4658,2.4656,2.481,2.4817,2.4824,0,0,0,0,0,0,0,0,0,0,0,0,0,2.4364,2.424,2.4507,2.453,2.4534,2.4654,2.4657,2.4659,2.4663,2.466,2.4658,2.4655,2.4808,2.4816,2.4825,2.4934,0,0,2.4852,2.4856,0,0,0,0,0,0,0,0,2.4356,2.4374,2.4525,2.4529,2.4533,2.4637,2.4617,2.4751,2.4664,2.4614,2.4657,2.4654,2.4757,2.4769,2.4803,2.4941,2.4948,2.4853,2.4858,2.4862,2.4864,0,0,0,0,0,0,0,2.4347,2.4368,2.4566,2.4527,2.4532,2.4535,2.455,2.4643,2.4699,2.4618,2.4619,2.4636,2.4758,2.4795,2.4807,2.495,2.4852,2.486,2.4865,2.4869,2.5186,2.5189,0,0,0,0,0,0,2.4333,2.436,2.4561,2.457,2.4436,2.4542,2.4559,2.4607,2.4698,2.4709,2.4638,2.4636,2.4781,2.4797,2.4812,2.4946,2.4862,2.487,2.4875,2.5182,2.5186,2.519,0,0,0,0,0,0,2.4327,2.4351,2.4555,2.4465,2.4492,2.4549,2.4603,2.4611,2.4647,2.4713,2.4724,2.4665,2.478,2.48,2.4903,2.4952,2.4874,2.4882,2.5179,2.5184,2.5188,2.5215,0,0,0,0,0,0,2.4319,2.4349,2.439,2.4466,2.4496,2.4643,2.4606,2.4616,2.4662,2.466,2.4741,2.4752,2.4779,2.489,2.4912,2.4962,2.4888,2.5175,2.5181,2.5186,2.521,2.522,2.5228,0,0,0,0,0,2.431,2.4392,2.4392,2.4416,2.4548,2.4645,2.4663,2.4692,2.4666,2.4708,2.475,2.4749,2.4943,2.4901,2.4925,2.4979,2.5172,2.5179,2.5186,2.5206,2.5218,2.5228,0,0,0,0,0,0,2.4321,2.4402,2.4403,2.4512,2.4572,2.4646,2.47,2.4703,2.4772,2.4768,2.4802,2.482,2.4923,2.4961,2.4913,2.509,2.5054,2.5067,2.5061,2.5073,2.5082,2.5071,2.4896,0,0,0,0,0,2.4336,2.4406,2.4474,2.4564,2.4594,2.4642,2.4685,2.4702,2.4766,2.4791,2.4841,2.4904,2.4979,2.5028,2.5101,2.5215,2.5234,2.5264,2.5273,2.528,2.5291,2.5356,2.5371,2.5213,2.5213,2.5213,0,0,2.4368,2.4421,2.4464,2.4568,2.4616,2.469,2.4663,2.4742,2.4798,2.4804,2.4904,2.4943,2.5016,2.5125,2.5176,2.516,2.5339,2.529,2.5295,2.5302,2.5365,2.538,2.5393,2.5218,2.5217,2.5216,0,0,2.4464,2.4511,2.4591,2.464,2.4713,2.4744,2.4763,2.4837,2.4863,2.4964,2.497,2.5038,2.5166,2.5218,2.5261,2.5378,2.538,2.54,2.5449,2.5512,2.5525,2.5536,2.5579,2.5594,2.5411,2.5411,2.5411,0,2.4495,2.4605,2.4633,2.4712,2.4758,2.4766,2.4849,2.4895,2.4988,2.5021,2.5001,2.5163,2.5212,2.5335,2.5363,2.5397,2.5422,2.5392,2.552,2.5532,2.5543,2.5584,2.56,2.5413,2.5413,2.5412,2.5412,0,2.4641,2.4717,2.4774,2.4862,2.4915,2.4996,2.5037,2.5087,2.5099,2.5133,2.5237,2.5297,2.5382,2.5412,2.5425,2.5537,2.5525,2.5513,2.5478,2.5559,2.5599,2.5615,2.5416,2.5415,2.5414,2.5414,0,0,2.4748,2.4851,2.4871,2.4912,2.4993,2.5054,2.5136,2.5218,2.5261,2.5325,2.5396,2.5504,2.5493,2.5542,2.5562,2.5617,2.5707,2.5598,2.56,2.5617,2.5836,2.5846,2.5864,2.5708,2.5711,2.5714,2.5831,0,2.4854,2.4998,2.5025,2.5151,2.5223,2.5232,2.5303,2.5362,2.5396,2.5463,2.5501,2.5578,2.5557,2.5587,2.5641,2.5684,2.5752,2.5676,2.5776,2.578,2.5759,2.5885,2.5895,2.6003,2.5846,2.5849,2.5851,0,2.4997,2.5064,2.5197,2.5269,2.53,2.5364,2.5442,2.5506,2.5573,2.5594,2.5649,2.5662,2.5749,2.571,2.5831,2.5779,2.5822,2.5849,2.5854,2.5866,2.5821,2.5901,2.6037,2.6054,2.5875,2.5873,2.5871,0,2.5064,2.5187,2.5283,2.5317,2.5404,2.5449,2.5487,2.5551,2.5599,2.5668,2.57,2.5779,2.5822,2.5883,2.5918,2.5886,2.6038,2.6001,2.606,2.6059,2.6093,2.609,2.6239,2.6117,2.6117,2.6117,2.6116,0,2.518,2.5261,2.5314,2.5373,2.5465,2.5496,2.5587,2.5625,2.5682,2.575,2.5762,2.5826,2.5868,2.5938,2.5966,2.6063,2.6083,2.6104,2.611,2.6104,2.6101,2.6133,2.6127,2.6121,2.612,2.6119,2.6118,0,2.527,2.5309,2.5414,2.5487,2.5507,2.5572,2.5636,2.5694,2.5728,2.5814,2.5836,2.589,2.5974,2.6014,2.6118,2.6137,2.6248,2.6249,2.6225,2.6228,2.6285,2.628,2.6461,2.6488,2.6346,2.6348,2.6349,0,2.5342,2.5405,2.5485,2.5531,2.557,2.5643,2.5693,2.5726,2.5777,2.5859,2.5908,2.5992,2.6061,2.6194,2.6244,2.6324,2.6328,2.6386,2.634,2.6332,2.6331,2.6328,2.6336,2.6395,2.6396,2.6397,2.6398,0,2.5467,2.5483,2.5552,2.5629,2.5687,2.575,2.5811,2.5849,2.5892,2.5949,2.6034,2.6087,2.6193,2.6277,2.6361,2.6402,2.6409,2.6412,2.643,2.6425,2.6409,2.642,2.625,2.6408,2.6407,2.6406,2.6406,2.6405,2.5552,2.5608,2.5674,2.5751,2.5801,2.5858,2.5917,2.5959,2.603,2.6118,2.6133,2.6224,2.6292,2.6404,2.6448,2.6521,2.6509,2.6534,2.6541,2.6548,2.6552,2.6396,2.6536,2.6536,2.6536,2.6536,2.6536,0,2.5678,2.5721,2.5792,2.5877,2.5939,2.5937,2.6006,2.6058,2.6137,2.6199,2.6266,2.6365,2.6447,2.6502,2.6586,2.6634,2.6639,2.6655,2.6653,2.6663,2.6557,2.6534,2.6649,2.6649,2.6649,2.6649,2.6649,2.6649,2.5752,2.5848,2.5872,2.5994,2.6036,2.6125,2.6164,2.6218,2.6267,2.6377,2.6444,2.6479,2.654,2.6628,2.6703,2.6718,2.6749,2.6766,2.678,2.6681,2.667,2.6658,2.6637,2.6771,2.6772,2.688,2.6881,2.6881]}]]